Home > Time Zones > World Clock > Weather > India > Surat > Past weeks

Flag for India Weather past 2 weeks in Surat, Gujarat, India

Now
104 °F

Scattered clouds.


Feels Like: 109 °F
Forecast: 80 / 106 °F
Wind: 8 mph from South

Location: Ahmadabad Airport


UV Index: 10 (Very high)

Visibility: 4 mi


Pressure: 29.77 "Hg

Humidity: 29%

Dew point: 66 °F

Location of SuratLocation

Historic Weather in Surat

°F

Surat temperature yesterday

Maximum temperature yesterday: 102 °F (at 3:40 PM)
Minimum temperature yesterday: 79 °F (at 5:40 AM)
Average temperature yesterday: 91 °F

Past Weeks' High & Low Weather Summary

 TemperatureHumidityPressure
High108 °F (Apr 5, 4:40 PM)79% (Apr 18, 6:40 AM)29.92 "Hg (Apr 18, 6:40 AM)
Low70 °F (Apr 9, 4:40 AM)9% (Apr 9, 4:40 PM)29.65 "Hg (Apr 16, 4:40 PM)
Average90 °F36%29.80 "Hg
* Reported Apr 5 11:40 AM — Apr 20 10:40 AM, Surat, Weather by CustomWeather, © 2014

Note: Actual official high and low records may vary slightly from our data, if they occured in-between our weather recording intervals... More about our weather records

Advertising

Historic Weather Conditions — Data for Previous 24 hours

 ConditionsComfort  
Time TempWeatherWind HumidityBarometerVisibility
10:40 AM
Apr 20
95 °FClear.3 mph47%29.86 "Hg2 mi
8:40 AM86 °FHaze.7 mph66%29.86 "Hg1 mi
7:40 AM82 °FHaze.6 mph70%29.83 "Hg1 mi
6:40 AM81 °FHaze.2 mph70%29.83 "Hg2 mi
5:40 AM84 °FClear.2 mph55%29.80 "Hg2 mi
4:40 AM82 °FHaze.5 mph66%29.80 "Hg2 mi
3:40 AM84 °FHaze.3 mph62%29.80 "Hg2 mi
2:40 AM86 °FClear.6 mph59%29.80 "Hg2 mi
1:40 AM86 °FClear.5 mph59%29.80 "Hg2 mi
11:40 PM
Apr 19
90 °FClear.7 mph49%29.83 "Hg2 mi
10:40 PM91 °FClear.6 mph46%29.83 "Hg2 mi
9:40 PM91 °FClear.No wind38%29.80 "Hg2 mi
8:40 PM93 °FClear.No wind36%29.77 "Hg2 mi
7:40 PM97 °FClear.2 mph32%29.74 "Hg2 mi
6:40 PM99 °FClear.5 mph29%29.74 "Hg4 mi
5:40 PM102 °FClear.3 mph26%29.71 "Hg4 mi
4:40 PM102 °FPassing clouds.2 mph31%29.74 "Hg4 mi
3:40 PM102 °FScattered clouds.3 mph31%29.74 "Hg4 mi
2:40 PM100 °FScattered clouds.7 mph37%29.80 "Hg3 mi
Weather by CustomWeather, © 2014

See weather overview